Wetbulb
62.88 62.86 62.54 62.18 61.84 61.73 62.00 61.60 60.78 59.92 59.52 59.34 59.26 59.40 59.81 60.37 60.42 59.83 58.90 58.28 58.36 58.87 58.99 59.64 59.92 59.93 58.17 53.35 53.12 61.60 64.52 63.91 61.75 60.11 57.35 55.41 53.19 52.49 49.18 50.18 50.27 48.25 50.15 51.60 52.38 52.36 52.07
59.55 59.61 60.00 60.57 60.93 61.30 61.69 61.31 60.64 59.92 59.38 59.12 58.96 58.98 58.94 59.24 59.59 59.21 58.87 58.28 58.00 58.22 58.47 59.25 59.84 59.86 55.86 48.83 60.17 61.84 61.65 60.94 60.05 58.81 56.87 56.28 54.36 54.64 51.39 50.62 49.65 51.50 50.89 51.01 52.17 51.69 52.36
57.41 58.07 56.69 55.90 56.23 56.60 56.34 56.24 56.96 58.49 58.69 58.59 58.75 58.61 58.56 58.86 58.82 58.62 58.64 58.24 57.64 57.70 58.24 59.05 59.83 58.98 54.47 52.59 60.36 61.62 60.60 59.44 60.23 58.73 55.75 57.17 57.01 53.68 53.51 49.28 52.84 51.50 47.21 49.61 50.64 51.08 50.41
55.98 55.74 55.03 54.38 54.64 54.48 54.26 54.38 54.81 55.29 55.25 55.43 55.60 55.05 55.58 56.68 57.46 57.70 57.70 57.50 57.36 57.72 58.36 58.80 59.57 58.17 51.37 60.31 61.71 59.05 60.43 58.44 59.76 60.09 58.20 58.65 57.95 54.04 51.57 52.62 50.24 46.87 47.03 42.01 48.48 50.39 51.31
53.61 53.48 53.56 53.50 53.31 53.64 53.21 52.82 52.86 53.19 53.31 53.29 53.40 53.71 53.61 53.68 53.66 54.19 55.66 56.24 56.88 57.66 58.32 58.52 56.82 55.11 50.17 60.10 56.65 59.62 59.71 56.69 57.59 58.23 57.76 57.89 55.53 51.15 51.20 46.86 44.25 45.31 39.60 41.95 44.86 50.45 49.61
51.90 51.88 51.94 52.22 52.11 52.28 52.82 52.38 52.03 51.89 51.83 51.76 52.36 52.74 52.46 52.42 52.74 52.55 52.99 54.84 56.92 57.38 57.38 58.16 57.18 51.95 53.71 53.14 56.42 58.07 59.56 58.29 55.06 54.57 53.01 52.23 51.34 48.18 47.17 44.81 36.91 40.26 41.02 43.04 42.53 47.70 48.77
50.93 50.53 50.24 50.55 50.83 51.06 51.84 51.96 51.42 50.82 50.90 51.07 51.16 51.09 51.12 51.23 51.53 51.39 52.49 55.23 51.71 50.66 52.88 49.93 50.10 50.45 52.40 56.83 58.19 55.80 57.21 55.48 54.77 51.96 45.88 49.71 43.77 40.87 43.88 46.15 46.05 44.91 43.41 42.20 45.42 47.85 46.23
49.03 48.99 48.95 49.05 48.88 49.29 49.91 49.94 49.63 50.48 50.40 50.33 50.10 50.21 50.40 50.35 50.10 50.29 52.02 50.98 51.69 50.67 45.60 52.04 52.95 52.68 55.21 56.37 51.33 53.45 56.72 50.84 50.13 45.61 47.41 45.63 41.49 46.90 48.27 47.55 45.48 44.30 40.87 40.66 44.67 47.51 46.32
48.15 48.33 48.74 48.97 49.23 49.34 48.93 48.84 48.89 48.85 48.80 48.92 49.31 49.68 49.74 49.60 49.69 50.23 50.56 49.83 51.74 52.02 44.09 46.84 51.57 51.22 52.22 54.09 49.86 51.34 53.82 51.53 47.90 45.67 46.06 43.19 45.73 49.55 46.96 45.36 43.21 43.09 41.35 40.73 40.94 45.40 46.77
47.15 47.16 47.23 47.36 47.51 47.70 48.48 48.66 48.42 48.55 48.53 48.45 48.35 48.66 49.01 49.66 47.04 46.63 46.56 46.61 49.67 51.31 37.79 38.43 44.58 49.36 51.62 53.00 48.21 54.90 54.93 51.85 48.56 45.20 46.24 45.35 49.26 46.42 45.71 44.01 44.88 40.05 45.99 44.44 43.13 41.31 36.56
46.41 46.68 46.45 46.40 46.45 47.47 47.16 47.32 47.52 47.58 47.76 48.35 47.85 48.03 48.14 48.28 44.90 43.76 44.42 46.79 48.76 48.89 24.28 40.60 42.38 53.80 52.23 48.38 49.16 50.33 55.44 52.02 46.03 45.72 46.33 43.65 45.76 45.07 43.28 44.53 46.63 43.21 47.68 45.74 44.63 41.57 40.39
45.65 45.77 46.13 46.72 46.81 46.12 46.17 46.69 46.58 46.53 46.81 47.36 47.70 47.29 47.41 46.30 45.35 46.21 47.02 46.26 47.26 32.41 24.46 36.73 42.94 43.12 45.52 47.76 47.84 49.50 50.47 52.92 51.68 46.58 46.90 45.71 50.17 47.58 46.59 48.08 47.84 48.18 45.14 44.54 43.98 41.57 34.66
45.33 45.49 45.40 45.64 45.88 45.99 46.65 46.60 46.49 46.09 45.53 46.25 46.73 46.95 45.84 46.65 40.29 47.57 45.26 41.68 30.04 24.60 37.55 34.84 37.33 42.16 42.23 42.50 44.06 45.81 44.60 44.70 42.39 38.92 38.52 43.13 43.99 47.37 47.86 43.38 46.71 45.64 41.87 33.80 32.32 31.93 31.63
45.19 45.40 45.68 45.79 45.68 45.82 45.65 45.98 46.10 46.57 46.32 45.64 46.03 46.09 43.39 44.63 45.59 45.68 41.36 33.44 22.83 30.83 32.79 36.73 37.24 38.77 37.17 41.28 41.88 43.27 42.36 40.36 44.83 43.79 39.07 36.19 34.24 43.02 46.84 43.68 41.82 41.78 41.14 34.20 29.02 30.58 34.33
46.15 46.29 46.32 46.17 46.30 46.34 46.38 46.27 45.92 45.87 46.34 46.20 44.54 39.18 38.14 39.95 42.57 43.49 34.51 22.03 22.77 31.27 32.21 31.43 33.55 33.58 34.46 38.30 37.60 37.13 39.12 39.57 40.68 35.83 36.20 32.97 34.33 36.75 37.59 37.58 44.39 40.38 37.67 42.75 36.24 36.93 32.49
46.09 46.28 46.37 46.42 46.51 46.55 46.43 46.33 46.33 46.12 45.74 45.56 39.55 35.33 34.67 39.37 43.00 39.81 29.44 23.05 26.49 33.28 33.56 32.33 27.22 30.48 28.66 29.77 32.93 32.79 32.43 32.25 32.43 33.50 35.67 30.92 28.34 34.24 35.74 38.27 39.14 38.87 41.79 35.76 36.24 29.15 27.92
46.79 46.78 46.80 46.82 46.82 46.79 46.74 46.79 46.35 46.01 45.79 44.38 36.93 31.69 34.89 40.82 42.66 33.28 21.48 23.88 28.97 34.30 34.06 30.28 28.48 26.79 29.50 29.22 31.30 30.40 31.77 34.20 34.64 33.67 33.83 32.07 30.67 30.83 34.34 32.61 31.24 33.14 32.22 32.20 31.88 29.87 26.12
46.33 46.15 45.99 46.22 46.29 46.46 46.36 46.49 46.57 46.43 44.83 41.06 35.82 26.59 37.30 42.83 28.04 28.48 22.67 27.17 32.75 31.67 34.91 32.36 31.48 29.81 28.58 30.35 28.48 29.22 29.47 33.65 37.61 36.99 32.67 34.74 31.84 27.22 29.07 34.45 34.62 33.50 32.07 31.69 26.90 25.60 27.40
45.88 45.81 45.81 45.89 45.57 45.51 45.47 45.46 45.78 45.97 45.07 38.87 31.35 31.38 36.49 39.55 22.70 23.06 26.55 27.94 30.74 29.43 30.34 30.11 29.63 31.93 31.60 29.13 24.78 28.90 30.74 35.58 35.85 33.72 31.81 32.90 29.55 24.46 26.29 30.58 34.14 31.74 33.49 32.97 31.52 30.92 26.40
45.55 45.57 45.59 45.27 44.91 44.94 45.11 45.03 44.82 44.91 45.07 40.23 32.37 23.52 29.29 34.34 31.14 26.66 24.88 26.06 26.24 31.94 30.21 31.61 30.82 31.89 28.35 26.85 31.17 27.79 27.90 33.23 35.96 34.39 36.77 36.31 29.76 27.04 23.20 25.98 30.37 27.67 30.71 33.14 30.55 25.60 25.57
45.07 45.12 45.00 44.90 44.86 44.78 44.94 45.11 45.27 45.04 44.46 40.68 32.25 26.92 28.55 22.31 25.60 27.16 27.04 26.00 23.88 24.52 31.07 31.23 28.15 28.02 26.41 22.44 25.50 25.92 28.94 29.87 32.80 34.90 34.53 32.28 24.58 26.72 26.96 29.61 30.55 29.28 28.76 29.87 29.12 29.17 25.26
45.10 44.85 45.04 45.12 45.19 45.38 45.31 45.31 45.22 45.16 44.04 37.12 30.73 28.43 30.62 27.72 28.91 27.38 26.44 23.03 24.08 26.06 27.17 25.34 25.59 27.88 28.20 24.06 26.12 23.47 27.45 27.48 27.73 32.35 31.57 33.49 24.91 27.70 23.93 27.52 28.40 26.63 28.87 29.46 29.58 30.59 30.24
45.07 45.16 45.07 44.97 44.73 44.72 44.67 44.90 44.99 44.85 43.01 35.66 35.58 35.45 31.36 27.30 26.73 24.89 25.24 26.24 25.90 28.31 29.48 30.34 29.14 26.55 22.65 26.85 31.06 32.18 32.32 32.09 31.77 29.55 28.46 28.60 26.50 23.65 18.96 26.70 26.26 20.99 26.27 28.47 29.52 31.54 31.12
45.06 44.76 44.83 44.63 44.49 44.59 44.92 44.63 44.71 44.64 43.82 40.38 36.56 35.80 29.82 23.22 25.20 25.10 26.83 27.86 26.80 27.44 26.22 29.24 30.19 27.33 30.68 35.61 34.85 33.72 32.77 32.25 31.97 31.22 32.27 26.34 25.66 25.37 20.28 23.54 12.83 25.94 30.74 30.71 29.05 30.86 32.69
44.63 44.82 44.97 45.09 45.23 45.07 44.46 44.56 44.71 44.88 44.78 40.98 40.12 35.24 31.46 24.88 26.65 26.30 26.83 27.21 28.58 29.20 28.28 29.57 31.03 33.18 34.97 31.79 26.39 23.35 24.32 25.36 27.69 30.56 30.37 31.61 27.76 22.48 18.76 18.31 22.66 25.97 28.56 27.56 26.58 27.48 32.20
44.06 44.15 44.47 44.94 44.94 44.73 44.61 44.64 44.78 44.82 44.58 41.90 40.96 40.12 32.79 27.76 25.41 29.19 27.34 28.43 25.80 25.42 25.81 28.11 33.25 35.62 33.72 29.20 24.82 17.37 15.55 20.79 20.97 25.07 30.88 29.78 30.18 24.53 19.63 15.33 12.49 24.94 29.19 31.45 31.12 22.90 31.26
43.38 43.63 43.84 44.68 44.54 44.50 44.35 44.47 44.57 44.20 44.57 41.43 40.02 40.80 35.19 28.65 30.42 30.53 27.08 26.75 30.06 26.77 24.54 27.16 29.77 31.06 33.92 26.16 21.25 18.96 18.31 24.82 18.65 19.93 22.00 24.61 24.86 21.06 19.50 18.23 21.69 28.72 30.49 31.58 20.72 24.08 32.03
43.07 43.06 43.27 43.64 43.93 44.36 44.59 44.47 44.31 43.94 43.59 40.80 40.15 41.77 36.18 30.87 31.45 34.26 33.39 30.05 30.57 29.16 25.37 28.48 27.93 28.51 28.24 23.77 22.46 22.34 21.68 23.98 22.72 24.83 23.77 22.53 21.17 20.18 21.56 17.84 14.68 29.90 29.70 24.76 29.30 32.01 31.48
43.05 42.98 43.00 43.05 43.08 43.39 43.81 44.00 44.24 44.07 43.07 40.72 36.54 40.35 41.23 34.83 31.39 35.62 36.78 37.70 36.05 35.05 32.02 31.58 29.52 29.99 31.49 26.84 26.28 26.75 23.69 24.12 23.19 18.90 26.65 21.28 25.28 23.09 23.24 22.76 28.91 31.49 30.24 32.86 33.50 31.70 32.40
MSLP
1012.74 1012.92 1012.97 1013.09 1013.23 1013.12 1013.03 1012.89 1012.79 1013.11 1013.12 1013.07 1013.16 1013.28 1013.52 1013.36 1013.21 1013.22 1013.22 1013.24 1013.28 1013.27 1013.51 1013.74 1014.02 1014.21 1014.44 1013.21 1011.41 1010.48 1010.68 1010.50 1010.82 1011.13 1011.21 1011.54 1011.72 1011.66 1011.28 1010.86 1010.69 1010.00 1009.24 1009.06 1008.80 1008.30 1007.51
1012.72 1012.72 1012.95 1013.03 1012.80 1012.80 1012.34 1012.14 1012.10 1012.27 1012.28 1012.33 1012.29 1012.42 1012.57 1012.66 1012.51 1012.45 1012.62 1012.56 1012.67 1012.61 1012.68 1012.93 1013.04 1013.54 1012.98 1010.71 1010.36 1010.33 1010.33 1010.25 1010.41 1010.82 1010.88 1011.30 1010.97 1010.95 1011.03 1010.83 1010.51 1009.71 1009.09 1008.74 1008.72 1007.52 1006.82
1013.36 1012.41 1012.98 1013.21 1012.98 1013.10 1012.72 1012.19 1012.02 1012.15 1012.01 1011.86 1011.84 1011.77 1011.74 1011.88 1011.80 1011.80 1011.95 1011.95 1011.83 1011.88 1011.96 1012.16 1012.29 1012.69 1010.90 1008.64 1009.50 1009.78 1009.84 1009.45 1009.53 1009.97 1010.22 1010.22 1010.80 1011.34 1010.62 1010.22 1009.65 1009.45 1008.92 1008.57 1007.97 1006.74 1005.77
1013.49 1012.92 1013.24 1013.16 1013.07 1012.97 1012.78 1012.70 1012.51 1012.10 1012.31 1011.95 1011.78 1011.71 1011.58 1011.58 1011.31 1011.34 1011.27 1011.34 1011.22 1011.07 1011.18 1011.35 1011.59 1011.62 1007.71 1007.54 1008.40 1009.34 1009.11 1008.53 1008.89 1009.37 1009.77 1010.08 1010.60 1010.97 1010.86 1010.04 1009.57 1009.41 1008.97 1007.11 1006.42 1005.84 1005.08
1013.58 1013.67 1013.59 1013.53 1013.16 1013.32 1012.91 1012.53 1012.83 1012.28 1012.07 1012.33 1012.06 1011.91 1011.57 1011.27 1011.22 1011.02 1010.70 1010.77 1010.57 1010.48 1010.42 1010.63 1010.97 1010.51 1007.11 1006.58 1007.30 1007.69 1007.50 1007.75 1008.93 1009.05 1009.61 1009.84 1010.51 1009.94 1010.21 1010.06 1009.56 1008.83 1006.78 1006.30 1005.56 1005.09 1004.46
1013.59 1014.04 1014.36 1013.86 1013.51 1013.40 1012.80 1012.71 1013.07 1012.65 1012.56 1012.19 1012.06 1012.05 1011.78 1011.30 1011.12 1010.84 1010.66 1010.03 1009.70 1009.89 1009.84 1010.05 1010.00 1010.17 1007.09 1006.30 1006.13 1006.43 1007.13 1008.06 1008.59 1008.93 1009.45 1009.66 1009.98 1008.93 1008.94 1009.14 1007.41 1006.62 1006.13 1005.38 1004.90 1004.58 1003.82
1014.12 1014.24 1014.29 1014.21 1013.85 1013.13 1012.89 1012.83 1012.59 1012.61 1012.78 1012.42 1012.14 1011.92 1011.49 1010.97 1011.11 1010.80 1010.71 1009.72 1010.09 1009.47 1008.50 1007.30 1006.79 1005.84 1005.24 1005.47 1005.65 1006.03 1006.59 1007.28 1008.05 1008.57 1008.06 1008.52 1008.58 1006.89 1007.03 1007.09 1006.78 1006.35 1005.50 1004.68 1004.62 1004.48 1003.95
1014.45 1014.43 1014.39 1014.17 1013.54 1013.43 1013.26 1012.93 1012.78 1012.72 1012.34 1012.45 1012.18 1011.77 1011.23 1010.89 1010.75 1010.41 1010.55 1010.02 1009.26 1009.25 1007.42 1006.33 1005.28 1004.12 1003.99 1004.57 1004.44 1005.08 1005.57 1007.08 1006.87 1006.85 1006.84 1007.65 1004.77 1005.96 1006.03 1006.03 1005.89 1005.74 1004.94 1004.03 1004.45 1004.50 1004.05
1014.41 1014.33 1014.28 1013.91 1013.51 1013.30 1013.15 1013.02 1012.93 1012.62 1012.50 1012.45 1011.82 1011.74 1011.34 1010.60 1010.21 1010.20 1009.78 1010.02 1009.64 1009.35 1007.57 1005.07 1004.15 1002.91 1003.18 1004.17 1002.75 1003.59 1004.84 1004.70 1004.80 1005.15 1004.95 1004.84 1000.04 1004.31 1004.36 1004.47 1004.94 1004.36 1003.35 1004.23 1003.82 1004.18 1003.38
1014.07 1014.12 1013.96 1013.87 1013.52 1013.38 1013.34 1013.10 1012.83 1012.54 1012.40 1012.09 1012.30 1011.59 1011.44 1010.46 1010.47 1010.01 1009.88 1010.32 1009.68 1009.54 1007.12 1004.74 1002.89 1000.69 1001.36 1001.91 1000.76 1001.81 1002.59 1003.06 1003.47 1002.55 1003.09 1002.51 1000.40 1002.00 1002.90 1002.21 1003.84 1002.76 1003.01 1003.38 1003.48 1003.90 1002.57
1014.03 1014.06 1013.85 1013.68 1013.63 1013.40 1013.06 1013.05 1012.85 1012.38 1012.51 1012.31 1012.01 1011.57 1011.05 1010.90 1010.73 1010.36 1010.57 1009.85 1009.30 1008.86 1006.19 1003.52 1001.56 1000.16 1000.00 1000.48 999.43 999.33 1000.17 1001.49 1000.35 1001.48 1002.20 999.36 999.95 1000.41 1000.82 999.87 1002.29 999.81 1002.34 1001.72 1002.40 1002.61 1002.81
1014.06 1013.92 1013.76 1013.58 1013.28 1013.14 1013.07 1012.89 1012.55 1012.40 1012.05 1012.24 1011.78 1011.53 1010.96 1011.07 1010.75 1010.28 1010.43 1009.30 1009.25 1008.00 1004.32 1002.73 1001.39 1000.55 1000.41 999.73 999.82 999.50 999.44 1000.18 1000.24 1000.43 1000.24 999.30 999.44 999.78 999.28 1000.08 1000.48 1000.25 1001.04 1001.29 1001.47 1001.49 1000.57
1013.70 1013.83 1013.41 1013.44 1013.38 1012.99 1012.72 1012.45 1012.49 1012.24 1012.04 1011.76 1011.56 1011.52 1011.19 1011.09 1010.54 1010.37 1010.25 1009.95 1009.38 1006.41 1004.42 1002.98 1001.73 1001.21 1000.50 1000.07 999.87 999.82 999.68 999.62 999.83 999.59 999.48 999.80 998.76 999.12 999.87 1000.28 1000.09 1000.14 1000.74 999.74 1000.01 999.82 997.77
1013.43 1013.35 1013.24 1013.16 1012.80 1012.55 1012.41 1012.39 1012.34 1012.03 1011.62 1011.55 1011.47 1011.42 1010.77 1010.48 1010.38 1010.59 1011.00 1010.71 1008.27 1006.15 1004.69 1003.91 1003.16 1002.12 1000.99 1000.56 999.89 999.86 999.80 999.94 999.67 999.84 999.83 999.60 999.34 998.89 998.64 999.16 998.89 999.66 999.97 999.66 998.14 998.27 997.24
1013.28 1013.20 1013.08 1012.86 1012.65 1012.49 1012.29 1012.11 1011.93 1011.72 1011.53 1011.36 1011.37 1011.41 1011.08 1010.54 1010.33 1010.82 1011.38 1010.64 1008.16 1006.68 1006.37 1005.72 1004.21 1002.97 1002.43 1001.65 1001.54 1001.31 1000.69 1000.81 1000.56 1001.15 1000.42 1000.03 1000.39 1000.66 1000.71 1000.62 999.75 998.52 999.27 999.10 999.25 999.07 998.62
1012.99 1012.84 1012.66 1012.48 1012.30 1012.09 1011.89 1011.69 1011.52 1011.39 1011.26 1011.18 1011.54 1011.66 1011.12 1010.61 1010.64 1010.87 1011.20 1010.01 1008.53 1007.57 1007.38 1006.78 1005.84 1005.27 1003.95 1003.25 1003.19 1002.69 1002.60 1002.93 1003.12 1003.07 1002.90 1002.08 1001.95 1002.07 1001.81 1001.27 1001.04 999.94 999.71 999.55 999.48 998.50 998.29
1012.69 1012.50 1012.30 1012.11 1011.89 1011.69 1011.44 1011.21 1011.04 1010.99 1011.03 1011.18 1011.62 1011.73 1010.95 1010.78 1010.83 1011.16 1011.11 1010.04 1008.49 1007.60 1007.26 1007.34 1006.94 1006.45 1005.55 1004.94 1004.26 1003.95 1003.72 1004.15 1004.14 1003.71 1003.64 1002.91 1003.04 1003.29 1002.45 1002.09 1002.07 1001.53 1001.42 1001.15 1000.99 1000.07 999.66
1012.45 1012.22 1012.02 1011.78 1011.54 1011.34 1011.12 1010.87 1010.68 1010.68 1011.00 1011.41 1011.93 1011.94 1011.19 1011.18 1011.47 1011.40 1010.94 1009.64 1008.62 1007.74 1007.44 1007.46 1007.43 1006.65 1006.05 1005.60 1005.12 1004.94 1004.66 1004.41 1004.59 1003.85 1003.72 1004.19 1003.42 1003.13 1002.94 1002.86 1002.85 1002.65 1002.25 1002.02 1002.28 1001.68 1001.39
1012.28 1012.00 1011.77 1011.57 1011.38 1011.17 1010.97 1010.79 1010.59 1010.42 1010.58 1011.45 1011.74 1011.61 1011.23 1011.21 1011.22 1010.99 1010.52 1009.59 1008.73 1007.92 1007.48 1007.13 1007.00 1006.75 1006.59 1006.31 1006.06 1005.57 1005.00 1004.91 1004.59 1004.44 1004.62 1004.60 1003.97 1003.38 1003.04 1002.99 1003.27 1003.24 1002.91 1002.95 1002.77 1002.41 1002.11
1012.11 1011.80 1011.51 1011.35 1011.18 1010.94 1010.71 1010.54 1010.42 1010.30 1010.30 1011.01 1011.65 1011.71 1011.45 1011.08 1010.58 1010.51 1010.14 1009.18 1008.51 1007.66 1007.22 1006.92 1006.71 1006.57 1006.73 1006.45 1006.36 1005.95 1005.21 1004.41 1004.21 1004.20 1004.35 1004.51 1004.24 1003.77 1003.38 1003.33 1003.76 1003.79 1003.50 1003.03 1003.13 1003.15 1002.72
1011.99 1011.73 1011.44 1011.20 1010.97 1010.71 1010.45 1010.25 1010.11 1010.06 1010.19 1010.89 1011.19 1011.16 1011.01 1010.68 1010.46 1010.19 1009.98 1009.28 1008.47 1008.02 1007.83 1007.28 1007.11 1007.09 1006.91 1006.89 1006.43 1005.80 1005.34 1004.93 1004.58 1004.44 1004.30 1004.47 1004.42 1004.32 1003.97 1003.60 1003.63 1003.49 1003.21 1003.16 1002.97 1003.03 1002.38
1011.83 1011.62 1011.32 1011.01 1010.74 1010.44 1010.16 1009.89 1009.72 1009.66 1009.89 1010.62 1010.80 1010.90 1010.91 1010.41 1010.02 1009.89 1009.66 1009.15 1008.55 1007.97 1007.78 1007.05 1007.13 1006.99 1006.87 1006.93 1006.57 1006.26 1005.95 1005.66 1005.20 1004.79 1004.47 1004.63 1004.84 1004.60 1003.81 1003.38 1003.28 1002.85 1002.44 1002.32 1002.24 1002.00 1001.45
1011.65 1011.39 1011.09 1010.83 1010.60 1010.33 1010.03 1009.73 1009.49 1009.33 1009.59 1009.94 1010.41 1010.48 1010.41 1009.60 1009.50 1009.50 1008.77 1008.31 1008.15 1008.06 1007.47 1007.12 1007.10 1007.04 1006.86 1006.57 1006.33 1006.16 1006.01 1005.78 1005.47 1005.35 1005.24 1005.27 1005.09 1004.92 1004.14 1003.65 1003.10 1002.29 1001.41 1001.22 1000.91 1000.83 1000.72
1011.55 1011.24 1010.90 1010.60 1010.34 1010.09 1009.76 1009.52 1009.24 1009.01 1009.00 1009.26 1009.57 1009.67 1009.70 1008.82 1008.76 1008.21 1008.07 1008.12 1007.95 1007.95 1007.59 1007.20 1007.14 1006.89 1006.44 1006.21 1006.17 1005.86 1005.57 1005.20 1004.99 1004.85 1005.01 1004.92 1005.12 1005.11 1004.45 1003.95 1003.01 1001.33 1001.21 1001.04 1000.89 1000.52 1000.41
1011.54 1011.19 1010.83 1010.47 1010.10 1009.80 1009.55 1009.21 1008.77 1008.39 1008.22 1008.50 1008.44 1008.60 1008.74 1008.07 1007.73 1007.84 1007.71 1007.60 1007.65 1007.70 1007.50 1007.00 1006.55 1006.27 1006.33 1006.48 1006.34 1005.80 1005.21 1004.77 1003.67 1003.38 1003.86 1004.33 1004.77 1004.92 1004.68 1003.91 1002.68 1001.64 1001.18 1001.25 1000.90 1000.18 1000.11
1011.67 1011.34 1010.92 1010.44 1010.02 1009.75 1009.43 1009.00 1008.36 1007.75 1007.57 1007.69 1007.72 1007.93 1008.30 1007.80 1007.21 1007.06 1007.08 1007.10 1007.25 1007.25 1007.19 1006.53 1005.97 1005.83 1006.15 1006.25 1006.23 1005.69 1004.84 1004.03 1003.35 1003.16 1003.16 1003.89 1004.28 1004.81 1004.84 1004.10 1002.86 1001.66 1001.48 1001.41 1001.31 1000.51 1000.33
1011.79 1011.46 1011.08 1010.64 1010.18 1009.84 1009.45 1008.96 1008.38 1007.85 1007.26 1007.42 1007.59 1007.78 1008.09 1007.98 1007.35 1007.07 1006.79 1006.68 1006.78 1007.03 1006.92 1006.54 1006.07 1005.77 1005.77 1005.95 1005.80 1005.21 1004.48 1003.90 1003.53 1003.09 1003.28 1003.57 1003.98 1004.09 1004.32 1004.01 1002.97 1001.96 1001.86 1001.93 1001.79 1001.54 1000.84
1011.77 1011.48 1011.14 1010.76 1010.33 1009.91 1009.47 1008.99 1008.49 1008.07 1007.74 1007.66 1007.55 1007.54 1007.73 1007.65 1007.12 1006.79 1006.60 1006.58 1006.47 1006.46 1006.50 1006.35 1006.40 1005.98 1005.89 1005.53 1005.18 1004.66 1004.09 1003.71 1003.51 1003.37 1003.32 1003.36 1003.39 1003.76 1004.09 1003.88 1003.13 1002.29 1002.42 1002.43 1002.21 1001.69 1001.72
1011.70 1011.41 1011.11 1010.80 1010.41 1009.91 1009.46 1009.05 1008.65 1008.18 1007.82 1007.66 1007.73 1007.65 1007.46 1007.62 1007.14 1006.76 1006.20 1005.86 1005.63 1005.54 1005.86 1006.16 1006.06 1005.86 1005.43 1005.06 1004.74 1004.12 1003.71 1003.63 1003.22 1003.17 1003.40 1003.31 1002.98 1003.08 1003.47 1002.96 1002.42 1002.44 1002.33 1002.35 1002.44 1002.34 1002.20
Wind_Speed
12 13 14 14 14 15 16 15 14 15 15 14 14 15 16 16 15 15 14 14 14 14 13 13 12 11 5 10 13 12 9 10 9 7 11 9 10 9 15 9 10 15 21 20 20 24 26
5 7 8 10 12 15 16 16 16 16 17 16 15 16 16 16 16 16 15 16 16 16 15 14 14 12 7 24 9 18 16 17 15 10 8 8 10 6 11 16 18 18 23 24 21 28 28
5 9 9 9 10 11 12 12 10 8 9 10 13 15 15 16 16 15 17 18 17 17 16 16 16 10 13 21 6 15 17 21 19 15 13 16 9 10 7 10 16 19 22 18 18 20 23
10 11 9 10 10 9 9 11 12 12 12 10 9 11 10 10 13 17 18 19 17 17 17 17 17 11 23 10 19 15 20 20 18 15 17 15 10 15 15 7 6 10 15 18 11 17 10
11 11 11 10 10 8 8 10 10 11 11 11 11 10 8 8 9 9 10 16 16 17 16 14 10 8 14 11 14 26 30 22 3 13 8 8 9 8 6 9 7 9 21 26 22 19 20
11 10 11 10 9 10 10 8 8 10 10 10 10 10 11 11 10 11 12 9 9 10 9 8 5 5 6 4 9 11 21 20 13 7 6 7 8 7 8 8 17 18 16 18 20 7 16
8 8 9 10 11 11 11 9 8 9 10 10 9 10 12 13 13 14 9 4 3 6 9 13 13 14 7 8 8 13 8 15 8 8 9 11 12 14 18 21 25 22 25 26 16 7 10
8 8 9 10 10 11 12 12 11 11 9 9 10 12 12 13 14 14 6 5 3 6 8 19 23 26 21 5 10 14 19 13 10 11 13 8 27 17 19 23 23 23 29 26 20 16 18
9 10 11 13 14 12 11 11 10 10 10 11 11 13 13 13 15 5 3 5 8 8 7 10 18 20 17 21 24 18 21 9 13 19 23 22 40 17 21 23 23 24 30 20 20 16 20
9 10 11 12 13 13 13 12 12 13 12 11 11 13 13 15 4 3 2 12 10 6 7 7 9 15 17 17 24 27 28 16 13 22 24 27 31 28 24 27 21 27 21 25 25 14 11
12 12 12 13 13 12 11 12 13 13 13 13 13 11 11 10 5 4 5 8 9 4 9 4 5 3 5 17 7 17 31 24 32 25 9 16 14 19 27 33 24 30 18 24 23 20 15
11 11 12 13 12 12 12 13 13 13 12 13 12 11 10 3 3 1 6 6 2 5 8 6 4 6 7 18 11 2 13 23 12 26 29 34 21 20 23 23 25 27 24 16 13 12 14
11 12 13 14 14 13 13 12 13 13 13 11 12 10 6 2 2 2 4 3 5 8 3 5 5 6 12 11 14 13 11 16 19 8 19 21 28 27 23 24 13 20 18 8 11 12 14
13 13 14 14 15 14 14 14 13 12 11 11 10 8 5 3 1 3 2 2 9 2 5 5 5 11 5 3 10 15 11 19 22 22 10 12 16 24 17 36 23 16 16 10 7 7 12
13 14 14 15 15 14 15 15 12 12 12 11 5 2 3 3 2 3 2 3 4 4 4 9 10 6 6 2 3 4 6 13 7 6 9 6 4 3 10 8 25 32 19 21 20 20 9
13 14 15 15 16 16 16 14 12 12 10 6 1 3 3 2 3 3 2 6 4 0 2 5 4 6 5 7 4 2 2 3 2 5 9 2 2 2 1 3 5 3 3 16 8 10 19
14 15 15 15 15 15 17 16 13 12 7 4 2 2 2 1 2 1 4 5 5 2 3 2 2 4 5 6 3 3 2 2 1 3 1 2 1 0 3 2 2 4 3 3 5 1 2
12 11 12 12 13 12 12 13 11 11 4 4 1 3 1 2 2 1 3 4 4 4 3 3 4 7 5 1 2 3 3 4 10 1 2 3 1 2 2 3 3 1 3 4 2 1 2
13 12 13 11 12 11 11 11 11 11 6 3 2 2 1 2 3 4 5 5 6 8 6 2 4 5 2 3 3 4 1 5 5 3 5 2 2 2 4 3 3 2 3 3 1 1 4
13 13 11 12 12 12 12 11 10 9 4 4 2 2 2 4 3 5 6 7 8 5 8 8 5 2 4 2 5 3 7 5 5 6 5 3 2 3 3 5 3 2 2 4 3 2 3
12 12 12 12 12 13 13 13 11 9 4 3 3 2 1 3 3 10 8 5 5 6 4 2 3 1 5 2 4 3 5 7 7 3 2 1 3 3 9 8 7 6 7 7 9 8 8
12 13 12 11 12 12 11 10 10 9 3 3 2 3 1 3 3 6 6 3 5 4 4 5 6 0 1 3 5 4 6 4 4 4 4 3 3 4 5 7 10 13 13 12 14 13 14
13 13 13 12 12 13 12 13 11 10 4 2 2 1 2 5 4 5 7 9 8 8 5 6 3 2 1 6 8 8 8 9 10 6 5 4 2 1 4 4 4 7 10 14 9 9 11
13 14 13 13 13 14 13 12 12 11 5 3 4 3 4 6 10 10 8 8 7 10 13 10 3 3 3 1 5 6 8 11 12 13 12 4 5 3 3 2 5 3 2 4 7 11 11
14 15 15 16 15 13 12 14 16 15 12 4 3 4 4 6 10 9 10 9 9 9 11 9 11 8 2 5 3 4 3 4 9 14 16 15 7 3 3 6 9 14 3 3 4 9 6
15 16 17 18 14 12 13 15 19 13 10 2 3 3 2 3 3 11 7 8 7 5 4 8 10 7 5 5 3 5 5 3 4 3 1 13 9 6 3 4 5 1 2 3 2 8 2
14 15 16 17 15 13 14 16 13 16 15 2 1 4 1 1 3 3 3 5 5 3 2 3 4 2 6 5 7 7 6 2 5 5 5 6 6 9 4 5 7 5 2 1 4 5 1
13 15 16 16 15 15 15 16 14 12 13 3 2 5 2 1 3 6 6 4 2 3 4 1 2 2 3 6 5 4 5 5 4 3 1 2 4 3 4 4 8 3 4 4 3 5 6
13 15 15 16 16 16 15 15 15 12 12 4 2 2 2 2 3 2 5 7 6 5 4 3 2 1 3 3 2 3 3 3 5 4 3 4 3 3 7 5 3 4 3 2 4 4 6
Wind_Direction
244 247 249 248 251 251 251 251 248 247 244 245 251 255 258 256 254 253 247 244 240 239 238 237 239 229 208 225 225 248 206 249 284 276 272 271 280 285 262 261 262 255 264 267 273 273 271
26 17 347 315 288 268 261 257 253 248 244 245 244 246 246 249 251 250 250 245 242 238 234 232 232 230 221 249 178 237 252 267 259 256 247 243 242 235 272 262 258 273 277 274 277 270 273
34 74 56 44 28 47 38 39 25 323 303 291 274 259 253 253 252 252 254 251 243 239 236 233 231 224 234 240 172 213 232 234 238 222 236 227 234 244 285 269 259 266 275 278 257 265 258
51 57 56 47 45 51 44 34 33 41 29 31 31 31 6 309 274 264 259 252 246 242 240 239 236 237 259 208 217 202 240 240 233 237 239 251 240 257 234 245 251 256 256 269 275 258 267
46 35 31 32 33 26 40 43 26 33 32 19 14 9 6 352 341 335 283 262 254 248 244 240 241 223 267 135 198 212 218 231 242 235 229 222 216 214 175 224 257 204 264 261 277 245 263
30 16 360 8 12 1 12 32 18 16 11 9 4 2 356 353 339 331 312 266 245 253 243 232 228 226 175 184 172 210 219 232 235 203 173 188 223 208 177 177 233 243 248 253 259 252 250
20 2 348 346 346 347 351 349 3 358 347 347 347 343 344 345 332 332 328 276 210 224 193 197 188 227 167 215 154 196 170 185 182 200 172 189 220 212 205 213 242 259 262 265 254 243 291
347 344 342 340 343 340 341 345 348 352 345 338 337 337 336 334 324 321 290 257 8 341 277 224 243 241 242 215 238 186 148 175 178 202 169 210 237 211 232 237 236 243 258 257 263 261 268
359 357 351 349 347 337 330 328 328 336 340 341 351 341 331 324 313 302 276 1 338 322 261 230 223 239 225 216 241 216 178 184 196 199 188 212 246 232 224 232 233 234 241 252 249 269 257
348 349 349 341 337 329 338 336 332 332 324 323 327 341 346 330 268 351 129 336 317 299 260 257 220 249 217 207 237 214 192 181 217 238 225 234 251 234 228 227 212 249 222 239 249 253 250
347 338 334 329 326 328 328 322 325 329 335 325 315 320 338 335 301 316 349 315 295 223 257 172 233 288 190 197 228 198 201 210 232 227 187 224 218 206 225 231 205 242 231 240 235 234 247
334 331 329 329 330 319 321 321 322 322 329 329 338 330 335 328 312 1 302 322 311 232 239 243 241 214 199 201 221 204 189 216 234 232 231 249 238 234 233 234 224 243 243 236 236 237 230
335 326 324 321 318 321 328 325 318 314 313 319 324 332 322 302 263 335 352 353 239 223 115 226 240 228 219 217 220 218 195 193 218 206 224 240 243 240 244 258 246 227 239 235 222 217 236
326 321 317 314 315 316 316 309 309 322 311 311 309 322 269 213 267 41 19 242 234 227 236 13 346 322 233 248 226 225 225 226 215 232 237 219 241 233 221 221 225 209 221 222 248 228 242
311 309 305 307 307 304 301 300 305 313 313 318 350 330 304 298 204 125 107 238 247 3 13 343 313 269 243 196 334 342 252 253 257 353 247 202 202 331 40 348 227 226 234 233 244 251 275
317 312 308 306 304 302 301 305 297 294 316 350 41 349 283 307 184 135 174 239 256 48 39 0 302 4 348 353 309 160 329 28 278 10 326 84 304 16 319 319 46 265 317 220 222 230 238
314 313 308 306 304 304 300 293 287 295 310 120 52 357 288 293 161 121 227 241 285 247 250 245 343 314 328 318 309 318 5 93 259 162 25 328 136 96 274 103 104 31 10 31 311 131 257
336 330 329 326 323 317 321 334 305 285 89 79 85 289 355 202 137 223 227 232 281 276 180 221 250 236 229 2 277 294 330 18 339 191 120 244 274 230 256 165 132 7 163 129 181 196 76
326 324 321 324 326 326 327 327 321 322 189 138 192 249 316 210 232 215 254 262 251 245 233 230 239 224 107 289 330 299 291 254 69 55 356 305 256 208 170 121 147 239 173 148 5 25 199
341 341 338 325 323 321 317 314 312 319 318 138 170 238 280 217 204 238 259 258 248 251 255 245 245 90 356 247 192 301 323 10 355 3 194 275 319 333 28 52 23 317 250 169 144 206 159
341 335 330 323 317 312 310 310 308 298 324 134 193 223 250 213 225 240 240 276 284 299 317 327 29 224 285 231 328 278 21 337 323 11 95 64 300 320 276 256 226 234 248 237 208 200 208
342 341 341 344 338 330 326 323 317 299 139 154 230 192 180 268 211 220 222 242 234 287 235 253 231 71 52 198 217 278 311 323 279 346 27 24 266 333 286 267 248 252 252 246 239 241 243
342 332 325 326 333 330 331 329 329 317 171 195 145 214 194 239 204 222 233 229 265 295 244 223 196 137 168 257 256 259 262 257 255 278 281 270 207 276 272 338 338 274 241 237 234 234 239
352 350 349 338 327 321 325 330 324 312 259 193 182 174 199 245 211 218 232 213 237 266 261 272 196 237 242 0 300 265 253 252 248 242 219 205 208 231 261 275 256 306 237 238 253 263 256
9 4 1 353 345 340 338 325 317 307 292 219 200 188 197 247 223 231 233 228 238 243 270 245 258 257 263 292 261 273 245 266 248 232 215 212 193 216 229 219 293 283 251 210 228 287 244
8 3 3 3 6 2 353 347 336 328 292 269 211 163 206 300 190 233 212 227 225 241 268 261 262 250 176 200 188 227 238 256 264 182 6 201 200 194 164 225 253 296 197 200 214 282 179
6 4 3 3 10 7 1 354 8 17 26 90 298 146 218 298 254 170 184 217 168 181 236 288 286 261 172 193 211 220 231 235 246 257 185 168 181 206 184 230 271 255 192 227 235 328 118
12 8 5 360 355 353 351 355 354 2 8 9 295 193 166 236 258 203 225 242 155 188 209 225 306 229 208 212 203 195 227 203 197 187 230 195 166 184 174 218 265 166 122 220 17 353 343
6 5 2 357 353 349 342 341 351 351 358 28 306 3 236 229 272 289 261 244 215 199 179 207 250 302 329 279 266 202 183 164 191 207 166 221 208 180 208 214 252 222 223 23 357 348 340